Flag for United Kingdom Weather past 2 weeks in Crawley, England, United Kingdom

50 °F

Partly sunny.

Feels Like: 48 °F
Forecast: 42 / 49 °F
Wind: 6 mph from Northwest

Location: London / Gatwick Airport

Current Time: Nov 26, 2015 at 1:06:17 PM

Latest Report: Nov 26, 2015 at 12:20 PM

Visibility: N/A

Pressure: 30.15 "Hg

Humidity: 88%

Dew point: 46 °F

Location of CrawleyLocation

Historic Weather in Crawley — Graph


Crawley temperature yesterday

Maximum temperature yesterday: 50 °F (at 11:50 AM)
Minimum temperature yesterday: 43 °F (at 2:20 AM)
Average temperature yesterday: 46 °F

Past Weeks' High & Low Weather Summary

High59 °F (Nov 11, 11:50 AM)100% (Nov 12, 4:20 AM)30.33 "Hg (Nov 12, 4:20 AM)
Low23 °F (Nov 22, 7:20 AM)58% (Nov 13, 1:20 PM)29.56 "Hg (Nov 17, 2:50 PM)
Average49 °F84%29.96 "Hg
* Reported Nov 11 11:20 AM — Nov 26 11:50 AM, Crawley, Weather by CustomWeather, © 2015

Note: Actual official high and low records may vary slightly from our data, if they occured in-between our weather recording intervals... More about our weather records


Crawley weather history for previous 24 hours

Time TempWeatherWind HumidityBarometerVisibility
11:50 AM
Thu, Nov 26
50 °FPartly sunny.7 mph82%30.15 "HgN/A
11:20 AM48 °FScattered clouds.7 mph94%30.12 "HgN/A
10:50 AM48 °FScattered clouds.9 mph94%30.12 "Hg6 mi
10:20 AM48 °FPartly sunny.8 mph94%30.12 "Hg5 mi
9:50 AM48 °FBroken clouds.5 mph94%30.12 "Hg5 mi
9:20 AM46 °FScattered clouds.6 mph100%30.12 "Hg5 mi
8:50 AM46 °FScattered showers. Scattered clouds.6 mph93%30.12 "HgN/A
8:20 AM46 °FLight rain. Broken clouds.5 mph93%30.12 "Hg4 mi
7:50 AM46 °FLight rain. Partly sunny.5 mph93%30.09 "HgN/A
7:20 AM46 °FLight rain. Partly cloudy.6 mph93%30.09 "Hg3 mi
6:50 AM46 °FLight rain. Partly cloudy.5 mph93%30.09 "Hg4 mi
6:20 AM46 °FLight rain. Passing clouds.5 mph93%30.07 "Hg5 mi
5:50 AM46 °FPassing clouds.3 mph93%30.07 "HgN/A
5:20 AM46 °FPassing clouds.2 mph93%30.07 "Hg5 mi
4:50 AM45 °FPartly cloudy.2 mph100%30.07 "HgN/A
4:20 AM45 °FPassing clouds.2 mph100%30.04 "Hg6 mi
3:50 AM45 °FClear.No wind93%30.04 "Hg10 mi
3:20 AM45 °FPassing clouds.2 mph93%30.04 "HgN/A
2:50 AM45 °FPassing clouds.6 mph87%30.04 "HgN/A
1:50 AM45 °FPassing clouds.3 mph93%30.04 "HgN/A
1:20 AM45 °FPassing clouds.3 mph93%30.04 "HgN/A
12:20 AM45 °FPassing clouds.6 mph93%30.04 "HgN/A
11:50 PM
Wed, Nov 25
45 °FPassing clouds.6 mph93%30.04 "HgN/A
11:20 PM46 °FPartly cloudy.5 mph87%30.01 "HgN/A
10:50 PM46 °FPassing clouds.3 mph93%30.01 "HgN/A
10:20 PM46 °FPassing clouds.5 mph87%30.01 "HgN/A
9:50 PM45 °FClear.5 mph93%30.01 "Hg10 mi
9:20 PM46 °FClear.7 mph87%30.01 "Hg10 mi
8:50 PM46 °FPassing clouds.8 mph87%29.98 "HgN/A
8:20 PM45 °FPassing clouds.6 mph93%29.98 "HgN/A
7:50 PM43 °FPassing clouds.6 mph93%29.98 "HgN/A
7:20 PM45 °FPassing clouds.6 mph93%29.98 "HgN/A
6:50 PM45 °FClear.7 mph87%29.95 "Hg10 mi
6:20 PM45 °FPassing clouds.8 mph87%29.95 "HgN/A
5:50 PM45 °FPassing clouds.8 mph87%29.95 "HgN/A
5:20 PM45 °FPassing clouds.7 mph87%29.92 "HgN/A
4:50 PM43 °FPassing clouds.7 mph87%29.92 "HgN/A
4:20 PM46 °FPassing clouds.9 mph82%29.89 "HgN/A
3:50 PM48 °FPassing clouds.8 mph76%29.89 "HgN/A
3:20 PM46 °FPassing clouds.8 mph82%29.89 "HgN/A
2:50 PM48 °FPassing clouds.8 mph82%29.89 "HgN/A
2:20 PM50 °FPassing clouds.12 mph76%29.86 "HgN/A
1:50 PM50 °FBroken clouds.13 mph76%29.86 "HgN/A
1:20 PM50 °FScattered clouds.14 mph76%29.86 "HgN/A
Weather by CustomWeather, © 2015

See weather overviewHow to use our weather pages